Content
SEND FEEDBACK

Daily
Averages
Monthly
Summary
United States of America

NEW YORK - CENTRAL PARK, NEW YORK


Home > North America > United States > New York
Elevation: 4 meters     Latitude: 40 47N     Longitude: 073 58W

WEATHER
 
SELECT A DAY
Number of Records: 152,235;   Date Range: 11/1/95 - 11/25/14
 
SHARE

PRINT THIS DATA

[ ← Previous Day ]
WEATHER ALMANAC - 9 JANUARY, 2013
[ Next Day → ]
[ °F ]   °C
Weather ElementAverageHighLow
Temperature7.1 °C9.4 °C (4:51 pm)3.9 °C (5:51 am)
Dewpoint0.1 °C2.2 °C (4:51 pm)-2.8 °C (1:51 am)
Humidity61.7 %73 % (8:51 am)54 % (12:51 pm)
Barometer1025.1 hPa1028.8 hPa (7:51 am)1020.7 hPa (2:51 pm)
Wind Speed6.6 km/h18.5 km/h (12:51 pm)
Wind Gust29.6 km/h (12:51 pm)
Weather ElementAverage
Visibility12.6 km
Wind DirectionE (92.6 °)

Weather ElementTotal
Precipitation---
Heating Degree Days11.7 (Base 18.3)
Averaged from 23 records on 9 January, 2013
WEATHER CONDITIONS BREAKOUT
WIND DIRECTION BREAKOUT
WEATHER BY HOUR - 9 JANUARY, 2013
[ °F ]   °C
Local TimeTemperatureDewpointHumidityBarometerVisibilityWind DirectionWind SpeedGust SpeedPrecipitationEventsConditions
1:51 AM5 °C-2.8 °C57 %1028.4 hPa12.9 kmCalmClear
2:51 AM4.4 °C-2.8 °C60 %1028.4 hPa11.3 kmWSW (250°)7.4 km/hPartly Cloudy
3:51 AM5 °C-2.2 °C60 %1028.1 hPa11.3 kmNW (320°)5.6 km/hMostly Cloudy
4:51 AM5 °C-2.2 °C60 %1028.1 hPa12.9 kmCalmOvercast
5:51 AM3.9 °C-2.2 °C65 %1028.1 hPa11.3 kmCalmScattered Clouds
6:51 AM4.4 °C-1.7 °C65 %1028.1 hPa11.3 kmNE (40°)7.4 km/hMostly Cloudy
7:51 AM3.9 °C-1.1 °C70 %1028.8 hPa8 kmNorth (360°)5.6 km/hHaze
8:51 AM4.4 °C0 °C73 %1028.8 hPa8 kmCalmHaze
9:51 AM6.7 °C0 °C63 %1028.1 hPa6.4 kmCalmHaze
10:51 AM8.3 °C0 °C56 %1026.4 hPa9.7 kmSouth (180°)9.3 km/hHaze
11:51 AM8.9 °C0.6 °C56 %1025.4 hPa9.7 kmVariable7.4 km/hHaze
12:51 PM8.9 °C0 °C54 %1024 hPa14.5 kmWest (260°)18.5 km/h29.6 km/hMostly Cloudy
1:51 PM8.3 °C0.6 °C59 %1024.4 hPa11.3 kmNorthOvercast
2:51 PM8.3 °C1.1 °C61 %1020.7 hPa11.3 kmVariable11.1 km/hOvercast
3:51 PM8.9 °C1.7 °C61 %1020.7 hPa14.5 kmWSW (240°)11.1 km/hMostly Cloudy
4:51 PM9.4 °C2.2 °C61 %1020.7 hPa14.5 kmSW (230°)11.1 km/hMostly Cloudy
5:51 PM9.4 °C2.2 °C61 %1021.7 hPa16.1 kmVariable7.4 km/hOvercast
6:51 PM8.9 °C2.2 °C63 %1021.7 hPa16.1 kmVariable7.4 km/hClear
7:51 PM8.3 °C2.2 °C66 %1022.4 hPa16.1 kmNorthClear
8:51 PM8.3 °C1.7 °C63 %1022.4 hPa14.5 kmVariable5.6 km/hClear
9:51 PM8.3 °C1.7 °C63 %1022 hPa14.5 kmWSW (250°)9.3 km/hClear
10:51 PM7.8 °C0.6 °C61 %1023 hPa16.1 kmNorthClear
11:51 PM7.2 °C0 °C60 %1023.4 hPa16.1 kmVariable7.4 km/hClear
Hourly data recorded from KNYC, located 0 kilometers away from New York - Central Park, New York







STORIES FROM OUR PARTNERS